Time,TemperatureF,DewpointF,PressureIn,WindDirection,WindDirectionDegrees,WindSpeedMPH,WindSpeedGustMPH,Humidity,HourlyPrecipIn,Conditions,Clouds,dailyrainin,SoftwareType,DateUTC
2013-05-27 00:01:00,48.0,30.7,22.54,NW,315,1.0,21.0,51,0.00,,,0.00,Wunderground v.1.15,2013-05-27 06:01:00,
2013-05-27 00:03:00,47.8,30.5,22.54,NW,314,1.0,1.0,51,0.00,,,0.00,Wunderground v.1.15,2013-05-27 06:03:00,
2013-05-27 00:05:00,47.6,30.3,22.54,NW,315,0.0,21.0,51,0.00,,,0.00,Wunderground v.1.15,2013-05-27 06:05:00,
2013-05-27 00:09:00,47.1,30.4,22.54,NW,315,0.0,21.0,52,0.00,,,0.00,Wunderground v.1.15,2013-05-27 06:09:00,
2013-05-27 00:11:00,46.9,30.2,22.54,NW,315,0.0,21.0,52,0.00,,,0.00,Wunderground v.1.15,2013-05-27 06:11:00,
2013-05-27 00:12:00,46.7,30.5,22.54,NW,315,0.0,21.0,53,0.00,,,0.00,Wunderground v.1.15,2013-05-27 06:12:00,
2013-05-27 00:15:00,46.5,30.3,22.54,NNW,340,0.0,21.0,53,0.00,,,0.00,Wunderground v.1.15,2013-05-27 06:15:00,
2013-05-27 00:16:00,46.4,30.6,22.54,SSW,208,1.0,21.0,54,0.00,,,0.00,Wunderground v.1.15,2013-05-27 06:16:00,
2013-05-27 00:21:00,45.9,30.2,22.54,SSW,208,1.0,21.0,54,0.00,,,0.00,Wunderground v.1.15,2013-05-27 06:21:00,
2013-05-27 00:25:00,45.4,30.2,22.53,SSW,209,0.0,21.0,55,0.00,,,0.00,Wunderground v.1.15,2013-05-27 06:25:00,
2013-05-27 00:27:00,45.2,30.4,22.53,SSW,208,0.0,21.0,56,0.00,,,0.00,Wunderground v.1.15,2013-05-27 06:27:00,
2013-05-27 00:31:00,44.9,29.7,22.53,SSW,208,0.0,21.0,55,0.00,,,0.00,Wunderground v.1.15,2013-05-27 06:31:00,
2013-05-27 00:33:00,44.7,30.0,22.53,WSW,250,0.0,21.0,56,0.00,,,0.00,Wunderground v.1.15,2013-05-27 06:33:00,
2013-05-27 00:37:00,44.4,29.7,22.53,NNW,336,1.0,21.0,56,0.00,,,0.00,Wunderground v.1.15,2013-05-27 06:37:00,
2013-05-27 00:38:00,44.4,29.7,22.53,NNW,336,1.0,21.0,56,0.00,,,0.00,Wunderground v.1.15,2013-05-27 06:38:00,
2013-05-27 00:40:00,44.3,30.0,22.54,NNW,336,0.0,21.0,57,0.00,,,0.00,Wunderground v.1.15,2013-05-27 06:40:00,
2013-05-27 00:44:00,44.1,29.8,22.54,NNW,336,1.0,21.0,57,0.00,,,0.00,Wunderground v.1.15,2013-05-27 06:44:00,
2013-05-27 00:49:00,44.0,29.3,22.53,NNW,336,1.0,21.0,56,0.00,,,0.00,Wunderground v.1.15,2013-05-27 06:49:00,
2013-05-27 00:51:00,44.0,29.3,22.53,NNW,336,1.0,21.0,56,0.00,,,0.00,Wunderground v.1.15,2013-05-27 06:51:00,
2013-05-27 00:57:00,44.0,29.3,22.53,NNW,335,0.0,21.0,56,0.00,,,0.00,Wunderground v.1.15,2013-05-27 06:57:00,
2013-05-27 00:59:00,44.0,29.3,22.53,NNW,335,0.0,21.0,56,0.00,,,0.00,Wunderground v.1.15,2013-05-27 06:59:00,
2013-05-27 01:03:00,43.8,29.1,22.53,North,351,0.0,21.0,56,0.00,,,0.00,Wunderground v.1.15,2013-05-27 07:03:00,
2013-05-27 01:04:00,43.7,29.5,22.53,North,352,0.0,21.0,57,0.00,,,0.00,Wunderground v.1.15,2013-05-27 07:04:00,
2013-05-27 01:11:00,43.1,28.9,22.53,North,351,0.0,21.0,57,0.00,,,0.00,Wunderground v.1.15,2013-05-27 07:11:00,
2013-05-27 01:13:00,42.9,28.7,22.53,North,351,0.0,21.0,57,0.00,,,0.00,Wunderground v.1.15,2013-05-27 07:13:00,
2013-05-27 01:15:00,42.8,28.6,22.53,North,351,0.0,21.0,57,0.00,,,0.00,Wunderground v.1.15,2013-05-27 07:15:00,
2013-05-27 01:21:00,42.8,28.2,22.53,NNW,342,1.0,21.0,56,0.00,,,0.00,Wunderground v.1.15,2013-05-27 07:21:00,
2013-05-27 01:23:00,43.0,27.9,22.53,North,352,1.0,1.0,55,0.00,,,0.00,Wunderground v.1.15,2013-05-27 07:23:00,
2013-05-27 01:24:00,43.2,28.1,22.53,WSW,250,1.0,21.0,55,0.00,,,0.00,Wunderground v.1.15,2013-05-27 07:24:00,
2013-05-27 01:28:00,43.8,26.3,22.53,WSW,250,1.0,21.0,50,0.00,,,0.00,Wunderground v.1.15,2013-05-27 07:28:00,
2013-05-27 01:30:00,44.7,26.2,22.53,SW,225,1.0,21.0,48,0.00,,,0.00,Wunderground v.1.15,2013-05-27 07:30:00,
2013-05-27 01:32:00,45.5,26.9,22.52,WSW,239,0.0,21.0,48,0.00,,,0.00,Wunderground v.1.15,2013-05-27 07:32:00,
2013-05-27 01:35:00,46.5,25.7,22.52,West,262,1.0,21.0,44,0.00,,,0.00,Wunderground v.1.15,2013-05-27 07:35:00,
2013-05-27 01:37:00,47.7,25.7,22.52,WSW,240,1.0,21.0,42,0.00,,,0.00,Wunderground v.1.15,2013-05-27 07:37:00,
2013-05-27 01:39:00,48.3,25.7,22.52,SSW,201,1.0,21.0,41,0.00,,,0.00,Wunderground v.1.15,2013-05-27 07:39:00,
2013-05-27 01:43:00,49.6,25.6,22.52,WSW,248,2.0,2.0,39,0.00,,,0.00,Wunderground v.1.15,2013-05-27 07:43:00,
2013-05-27 01:45:00,50.1,26.1,22.52,WSW,242,2.0,21.0,39,0.00,,,0.00,Wunderground v.1.15,2013-05-27 07:45:00,
2013-05-27 01:49:00,50.1,25.5,22.52,NW,314,2.0,21.0,38,0.00,,,0.00,Wunderground v.1.15,2013-05-27 07:49:00,
2013-05-27 01:50:00,50.1,25.5,22.52,WNW,299,1.0,21.0,38,0.00,,,0.00,Wunderground v.1.15,2013-05-27 07:50:00,
2013-05-27 01:54:00,50.3,25.6,22.52,WSW,248,1.0,21.0,38,0.00,,,0.00,Wunderground v.1.15,2013-05-27 07:54:00,
2013-05-27 01:56:00,50.3,25.6,22.52,WSW,248,1.0,21.0,38,0.00,,,0.00,Wunderground v.1.15,2013-05-27 07:56:00,
2013-05-27 02:01:00,50.6,25.9,22.51,SSW,204,1.0,21.0,38,0.00,,,0.00,Wunderground v.1.15,2013-05-27 08:01:00,
2013-05-27 02:03:00,50.7,24.7,22.51,East,89,1.0,21.0,36,0.00,,,0.00,Wunderground v.1.15,2013-05-27 08:03:00,
2013-05-27 02:07:00,51.0,24.3,22.51,NW,314,1.0,21.0,35,0.00,,,0.00,Wunderground v.1.15,2013-05-27 08:07:00,
2013-05-27 02:09:00,51.4,24.6,22.51,WSW,249,1.0,21.0,35,0.00,,,0.00,Wunderground v.1.15,2013-05-27 08:09:00,
2013-05-27 02:11:00,51.6,24.8,22.51,ENE,65,1.0,21.0,35,0.00,,,0.00,Wunderground v.1.15,2013-05-27 08:11:00,
2013-05-27 02:13:00,51.7,24.9,22.51,North,351,1.0,21.0,35,0.00,,,0.00,Wunderground v.1.15,2013-05-27 08:13:00,
2013-05-27 02:15:00,51.8,24.3,22.51,NW,313,1.0,21.0,34,0.00,,,0.00,Wunderground v.1.15,2013-05-27 08:15:00,
2013-05-27 02:16:00,52.1,24.6,22.51,NW,322,1.0,21.0,34,0.00,,,0.00,Wunderground v.1.15,2013-05-27 08:16:00,
2013-05-27 02:21:00,52.5,23.5,22.51,SW,218,1.0,21.0,32,0.00,,,0.00,Wunderground v.1.15,2013-05-27 08:21:00,
2013-05-27 02:23:00,52.6,23.5,22.51,SSW,195,1.0,1.0,32,0.00,,,0.00,Wunderground v.1.15,2013-05-27 08:23:00,
2013-05-27 02:27:00,52.9,23.0,22.51,WSW,246,1.0,21.0,31,0.00,,,0.00,Wunderground v.1.15,2013-05-27 08:27:00,
2013-05-27 02:29:00,52.9,22.3,22.51,West,259,1.0,21.0,30,0.00,,,0.00,Wunderground v.1.15,2013-05-27 08:29:00,
2013-05-27 02:31:00,53.1,21.6,22.51,NNW,336,2.0,21.0,29,0.00,,,0.00,Wunderground v.1.15,2013-05-27 08:31:00,
2013-05-27 02:35:00,53.6,21.2,22.51,WSW,248,2.0,21.0,28,0.00,,,0.00,Wunderground v.1.15,2013-05-27 08:35:00,
2013-05-27 02:37:00,53.7,22.2,22.51,West,267,1.0,21.0,29,0.00,,,0.00,Wunderground v.1.15,2013-05-27 08:37:00,
2013-05-27 02:38:00,53.5,21.2,22.51,WSW,238,1.0,21.0,28,0.00,,,0.00,Wunderground v.1.15,2013-05-27 08:38:00,
2013-05-27 02:41:00,53.3,21.8,22.51,WNW,284,1.0,21.0,29,0.00,,,0.00,Wunderground v.1.15,2013-05-27 08:41:00,
2013-05-27 02:42:00,53.0,21.6,22.51,NNW,347,1.0,21.0,29,0.00,,,0.00,Wunderground v.1.15,2013-05-27 08:42:00,
2013-05-27 02:44:00,52.9,18.9,22.51,NW,315,1.0,21.0,26,0.00,,,0.00,Wunderground v.1.15,2013-05-27 08:44:00,
2013-05-27 02:47:00,53.3,19.2,22.51,WSW,247,1.0,21.0,26,0.00,,,0.00,Wunderground v.1.15,2013-05-27 08:47:00,
2013-05-27 02:51:00,54.8,18.6,22.51,South,191,2.0,21.0,24,0.00,,,0.00,Wunderground v.1.15,2013-05-27 08:51:00,
2013-05-27 02:53:00,54.9,19.7,22.51,WSW,253,2.0,21.0,25,0.00,,,0.00,Wunderground v.1.15,2013-05-27 08:53:00,
2013-05-27 02:57:00,54.8,18.6,22.51,WSW,249,2.0,21.0,24,0.00,,,0.00,Wunderground v.1.15,2013-05-27 08:57:00,
2013-05-27 02:59:00,54.7,18.6,22.51,West,267,2.0,21.0,24,0.00,,,0.00,Wunderground v.1.15,2013-05-27 08:59:00,
2013-05-27 03:01:00,54.7,18.6,22.51,WNW,297,2.0,21.0,24,0.00,,,0.00,Wunderground v.1.15,2013-05-27 09:01:00,
2013-05-27 03:04:00,54.4,18.3,22.51,WSW,249,2.0,21.0,24,0.00,,,0.00,Wunderground v.1.15,2013-05-27 09:04:00,
2013-05-27 03:09:00,54.0,18.9,22.51,SW,226,2.0,21.0,25,0.00,,,0.00,Wunderground v.1.15,2013-05-27 09:09:00,
2013-05-27 03:13:00,53.9,17.9,22.51,WSW,243,2.0,2.0,24,0.00,,,0.00,Wunderground v.1.15,2013-05-27 09:13:00,
2013-05-27 03:15:00,53.9,17.9,22.51,SW,233,2.0,21.0,24,0.00,,,0.00,Wunderground v.1.15,2013-05-27 09:15:00,
2013-05-27 03:17:00,54.2,17.1,22.51,WSW,252,2.0,21.0,23,0.00,,,0.00,Wunderground v.1.15,2013-05-27 09:17:00,
2013-05-27 03:19:00,54.5,17.4,22.51,SW,231,2.0,21.0,23,0.00,,,0.00,Wunderground v.1.15,2013-05-27 09:19:00,
2013-05-27 03:21:00,54.7,17.6,22.51,SW,226,2.0,21.0,23,0.00,,,0.00,Wunderground v.1.15,2013-05-27 09:21:00,
2013-05-27 03:23:00,54.7,17.6,22.51,SW,224,2.0,21.0,23,0.00,,,0.00,Wunderground v.1.15,2013-05-27 09:23:00,
2013-05-27 03:25:00,54.8,17.7,22.50,SW,233,3.0,21.0,23,0.00,,,0.00,Wunderground v.1.15,2013-05-27 09:25:00,
2013-05-27 03:28:00,55.0,16.8,22.50,SSW,208,3.0,21.0,22,0.00,,,0.00,Wunderground v.1.15,2013-05-27 09:28:00,
2013-05-27 03:30:00,55.2,17.0,22.50,WSW,239,3.0,21.0,22,0.00,,,0.00,Wunderground v.1.15,2013-05-27 09:30:00,
2013-05-27 03:33:00,55.4,17.1,22.50,West,259,4.0,21.0,22,0.00,,,0.00,Wunderground v.1.15,2013-05-27 09:33:00,
2013-05-27 03:35:00,55.8,16.4,22.50,WSW,243,4.0,21.0,21,0.00,,,0.00,Wunderground v.1.15,2013-05-27 09:35:00,
2013-05-27 03:37:00,56.1,15.5,22.50,WSW,246,4.0,21.0,20,0.00,,,0.00,Wunderground v.1.15,2013-05-27 09:37:00,
2013-05-27 03:41:00,56.5,14.7,22.50,SW,226,5.0,21.0,19,0.00,,,0.00,Wunderground v.1.15,2013-05-27 09:41:00,
2013-05-27 03:43:00,56.7,16.0,22.50,WSW,252,5.0,5.0,20,0.00,,,0.00,Wunderground v.1.15,2013-05-27 09:43:00,
2013-05-27 03:45:00,56.7,16.0,22.50,SSW,205,4.0,21.0,20,0.00,,,0.00,Wunderground v.1.15,2013-05-27 09:45:00,
2013-05-27 03:49:00,56.4,15.8,22.50,WSW,243,4.0,21.0,20,0.00,,,0.00,Wunderground v.1.15,2013-05-27 09:49:00,
2013-05-27 03:50:00,56.8,13.7,22.50,WSW,254,5.0,21.0,18,0.00,,,0.00,Wunderground v.1.15,2013-05-27 09:50:00,
2013-05-27 03:55:00,57.1,15.2,22.50,WSW,242,5.0,21.0,19,0.00,,,0.00,Wunderground v.1.15,2013-05-27 09:55:00,
2013-05-27 03:56:00,57.0,15.1,22.50,West,266,5.0,21.0,19,0.00,,,0.00,Wunderground v.1.15,2013-05-27 09:56:00,
2013-05-27 03:59:00,57.0,13.8,22.50,SSW,201,5.0,21.0,18,0.00,,,0.00,Wunderground v.1.15,2013-05-27 09:59:00,
2013-05-27 04:05:00,56.7,14.8,22.50,WSW,254,4.0,21.0,19,0.00,,,0.00,Wunderground v.1.15,2013-05-27 10:05:00,
2013-05-27 04:07:00,56.7,13.6,22.50,WSW,243,4.0,21.0,18,0.00,,,0.00,Wunderground v.1.15,2013-05-27 10:07:00,
2013-05-27 04:09:00,56.8,13.7,22.50,WSW,255,4.0,21.0,18,0.00,,,0.00,Wunderground v.1.15,2013-05-27 10:09:00,
2013-05-27 04:13:00,56.8,13.7,22.50,WSW,246,4.0,21.0,18,0.00,,,0.00,Wunderground v.1.15,2013-05-27 10:13:00,
2013-05-27 04:16:00,57.0,12.5,22.49,WSW,245,5.0,21.0,17,0.00,,,0.00,Wunderground v.1.15,2013-05-27 10:16:00,
2013-05-27 04:20:00,57.0,13.8,22.49,WSW,253,5.0,21.0,18,0.00,,,0.00,Wunderground v.1.15,2013-05-27 10:20:00,
2013-05-27 04:22:00,57.1,12.6,22.49,West,281,5.0,21.0,17,0.00,,,0.00,Wunderground v.1.15,2013-05-27 10:22:00,
2013-05-27 04:27:00,57.1,12.6,22.49,SSE,162,4.0,21.0,17,0.00,,,0.00,Wunderground v.1.15,2013-05-27 10:27:00,
2013-05-27 04:29:00,57.1,12.6,22.49,WSW,253,4.0,21.0,17,0.00,,,0.00,Wunderground v.1.15,2013-05-27 10:29:00,
2013-05-27 04:31:00,57.2,12.7,22.49,South,180,4.0,21.0,17,0.00,,,0.00,Wunderground v.1.15,2013-05-27 10:31:00,
2013-05-27 04:33:00,57.3,11.4,22.49,SW,221,5.0,21.0,16,0.00,,,0.00,Wunderground v.1.15,2013-05-27 10:33:00,
2013-05-27 04:37:00,57.3,12.8,22.49,WSW,239,5.0,21.0,17,0.00,,,0.00,Wunderground v.1.15,2013-05-27 10:37:00,
2013-05-27 04:39:00,57.3,11.4,22.49,SW,231,5.0,21.0,16,0.00,,,0.00,Wunderground v.1.15,2013-05-27 10:39:00,
2013-05-27 04:42:00,57.5,11.6,22.49,WSW,242,5.0,5.0,16,0.00,,,0.00,Wunderground v.1.15,2013-05-27 10:42:00,
2013-05-27 04:44:00,57.5,11.6,22.49,West,259,5.0,21.0,16,0.00,,,0.00,Wunderground v.1.15,2013-05-27 10:44:00,
2013-05-27 04:49:00,57.5,11.6,22.49,SW,233,5.0,21.0,16,0.00,,,0.00,Wunderground v.1.15,2013-05-27 10:49:00,
2013-05-27 04:53:00,57.4,11.5,22.49,West,276,4.0,4.0,16,0.00,,,0.00,Wunderground v.1.15,2013-05-27 10:53:00,
2013-05-27 04:55:00,57.4,11.5,22.49,SSW,211,4.0,21.0,16,0.00,,,0.00,Wunderground v.1.15,2013-05-27 10:55:00,
2013-05-27 04:59:00,57.2,11.3,22.49,SSW,197,4.0,21.0,16,0.00,,,0.00,Wunderground v.1.15,2013-05-27 10:59:00,
2013-05-27 05:01:00,57.1,11.3,22.49,WNW,293,4.0,21.0,16,0.00,,,0.00,Wunderground v.1.15,2013-05-27 11:01:00,
2013-05-27 05:02:00,56.9,12.5,22.49,SSW,201,3.0,3.0,17,0.00,,,0.00,Wunderground v.1.15,2013-05-27 11:02:00,
2013-05-27 05:04:00,56.7,12.3,22.49,SW,231,3.0,21.0,17,0.00,,,0.00,Wunderground v.1.15,2013-05-27 11:04:00,
2013-05-27 05:08:00,56.3,12.0,22.49,SW,222,3.0,21.0,17,0.00,,,0.00,Wunderground v.1.15,2013-05-27 11:08:00,
2013-05-27 05:10:00,56.1,11.8,22.49,SSW,212,3.0,21.0,17,0.00,,,0.00,Wunderground v.1.15,2013-05-27 11:10:00,
2013-05-27 05:15:00,56.0,11.7,22.49,SSW,197,4.0,4.0,17,0.00,,,0.00,Wunderground v.1.15,2013-05-27 11:15:00,
2013-05-27 05:17:00,56.0,13.0,22.49,SW,231,4.0,21.0,18,0.00,,,0.00,Wunderground v.1.15,2013-05-27 11:17:00,
2013-05-27 05:19:00,55.9,12.9,22.49,SW,228,4.0,21.0,18,0.00,,,0.00,Wunderground v.1.15,2013-05-27 11:19:00,
2013-05-27 05:21:00,55.9,12.9,22.50,WSW,253,4.0,21.0,18,0.00,,,0.00,Wunderground v.1.15,2013-05-27 11:21:00,
2013-05-27 05:23:00,55.7,12.8,22.50,West,259,3.0,21.0,18,0.00,,,0.00,Wunderground v.1.15,2013-05-27 11:23:00,
2013-05-27 05:25:00,55.6,12.7,22.50,NNW,338,3.0,21.0,18,0.00,,,0.00,Wunderground v.1.15,2013-05-27 11:25:00,
2013-05-27 05:27:00,55.6,11.4,22.50,SSE,153,3.0,21.0,17,0.00,,,0.00,Wunderground v.1.15,2013-05-27 11:27:00,
2013-05-27 05:30:00,55.7,11.5,22.50,West,261,2.0,21.0,17,0.00,,,0.00,Wunderground v.1.15,2013-05-27 11:30:00,
2013-05-27 05:35:00,55.7,12.8,22.50,SSW,205,3.0,21.0,18,0.00,,,0.00,Wunderground v.1.15,2013-05-27 11:35:00,
2013-05-27 05:37:00,55.5,12.6,22.50,WSW,240,3.0,21.0,18,0.00,,,0.00,Wunderground v.1.15,2013-05-27 11:37:00,
2013-05-27 05:39:00,55.5,11.3,22.50,WNW,298,3.0,21.0,17,0.00,,,0.00,Wunderground v.1.15,2013-05-27 11:39:00,
2013-05-27 05:41:00,55.6,11.4,22.50,NW,321,3.0,21.0,17,0.00,,,0.00,Wunderground v.1.15,2013-05-27 11:41:00,
2013-05-27 05:43:00,55.7,11.5,22.50,WNW,302,3.0,3.0,17,0.00,,,0.00,Wunderground v.1.15,2013-05-27 11:43:00,
2013-05-27 05:45:00,55.9,10.3,22.50,WNW,287,3.0,21.0,16,0.00,,,0.00,Wunderground v.1.15,2013-05-27 11:45:00,
2013-05-27 05:49:00,56.1,11.8,22.50,WSW,256,3.0,21.0,17,0.00,,,0.00,Wunderground v.1.15,2013-05-27 11:49:00,
2013-05-27 05:52:00,56.0,11.7,22.50,SSW,211,3.0,3.0,17,0.00,,,0.00,Wunderground v.1.15,2013-05-27 11:52:00,
2013-05-27 05:54:00,56.0,11.7,22.50,West,277,3.0,4.0,17,0.00,,,0.00,Wunderground v.1.15,2013-05-27 11:54:00,
2013-05-27 05:56:00,56.1,11.8,22.50,SW,226,3.0,21.0,17,0.00,,,0.00,Wunderground v.1.15,2013-05-27 11:56:00,
2013-05-27 06:01:00,56.0,11.7,22.50,SW,214,3.0,21.0,17,0.00,,,0.00,Wunderground v.1.15,2013-05-27 12:01:00,
2013-05-27 06:03:00,56.0,11.7,22.50,WSW,254,3.0,3.0,17,0.00,,,0.00,Wunderground v.1.15,2013-05-27 12:03:00,
2013-05-27 06:05:00,56.1,11.8,22.50,WSW,257,3.0,5.0,17,0.00,,,0.00,Wunderground v.1.15,2013-05-27 12:05:00,
2013-05-27 06:09:00,56.3,10.6,22.50,SW,221,4.0,21.0,16,0.00,,,0.00,Wunderground v.1.15,2013-05-27 12:09:00,
2013-05-27 06:11:00,56.5,12.1,22.50,WSW,243,4.0,21.0,17,0.00,,,0.00,Wunderground v.1.15,2013-05-27 12:11:00,
2013-05-27 06:15:00,56.7,12.3,22.50,SW,222,5.0,21.0,17,0.00,,,0.00,Wunderground v.1.15,2013-05-27 12:15:00,
2013-05-27 06:18:00,57.0,11.2,22.50,WSW,243,5.0,21.0,16,0.00,,,0.00,Wunderground v.1.15,2013-05-27 12:18:00,
2013-05-27 06:21:00,57.3,11.4,22.50,West,273,5.0,21.0,16,0.00,,,0.00,Wunderground v.1.15,2013-05-27 12:21:00,
2013-05-27 06:27:00,57.9,11.9,22.50,WSW,250,4.0,21.0,16,0.00,,,0.00,Wunderground v.1.15,2013-05-27 12:27:00,
2013-05-27 06:29:00,58.1,13.4,22.51,West,269,5.0,21.0,17,0.00,,,0.00,Wunderground v.1.15,2013-05-27 12:29:00,
2013-05-27 06:31:00,58.2,12.1,22.50,West,274,4.0,21.0,16,0.00,,,0.00,Wunderground v.1.15,2013-05-27 12:31:00,
2013-05-27 06:33:00,58.3,12.2,22.51,SW,231,5.0,21.0,16,0.00,,,0.00,Wunderground v.1.15,2013-05-27 12:33:00,
2013-05-27 06:35:00,58.5,10.9,22.50,SW,217,5.0,21.0,15,0.00,,,0.00,Wunderground v.1.15,2013-05-27 12:35:00,
2013-05-27 06:36:00,58.6,11.0,22.50,SW,214,5.0,21.0,15,0.00,,,0.00,Wunderground v.1.15,2013-05-27 12:36:00,
2013-05-27 06:38:00,58.8,12.6,22.51,SSW,195,5.0,21.0,16,0.00,,,0.00,Wunderground v.1.15,2013-05-27 12:38:00,
2013-05-27 06:40:00,58.9,11.3,22.51,NNW,329,6.0,21.0,15,0.00,,,0.00,Wunderground v.1.15,2013-05-27 12:40:00,
2013-05-27 06:44:00,59.1,11.4,22.51,NW,316,6.0,21.0,15,0.00,,,0.00,Wunderground v.1.15,2013-05-27 12:44:00,
2013-05-27 06:47:00,59.2,11.5,22.51,West,262,5.0,21.0,15,0.00,,,0.00,Wunderground v.1.15,2013-05-27 12:47:00,
2013-05-27 06:51:00,59.5,11.7,22.51,West,270,4.0,21.0,15,0.00,,,0.00,Wunderground v.1.15,2013-05-27 12:51:00,
2013-05-27 06:53:00,59.5,11.7,22.51,SW,222,3.0,21.0,15,0.00,,,0.00,Wunderground v.1.15,2013-05-27 12:53:00,
2013-05-27 06:57:00,59.8,12.0,22.51,SW,231,3.0,21.0,15,0.00,,,0.00,Wunderground v.1.15,2013-05-27 12:57:00,
2013-05-27 06:59:00,59.9,12.1,22.51,West,264,3.0,21.0,15,0.00,,,0.00,Wunderground v.1.15,2013-05-27 12:59:00,
2013-05-27 07:01:00,59.9,12.1,22.51,WNW,292,3.0,21.0,15,0.00,,,0.00,Wunderground v.1.15,2013-05-27 13:01:00,
2013-05-27 07:02:00,59.9,12.1,22.51,SW,233,3.0,21.0,15,0.00,,,0.00,Wunderground v.1.15,2013-05-27 13:02:00,
2013-05-27 07:04:00,59.8,12.0,22.50,WSW,247,4.0,21.0,15,0.00,,,0.00,Wunderground v.1.15,2013-05-27 13:04:00,
2013-05-27 07:07:00,59.9,12.1,22.51,SW,224,5.0,21.0,15,0.00,,,0.00,Wunderground v.1.15,2013-05-27 13:07:00,
2013-05-27 07:11:00,59.9,12.1,22.50,WNW,298,6.0,21.0,15,0.00,,,0.00,Wunderground v.1.15,2013-05-27 13:11:00,
2013-05-27 07:13:00,60.0,13.6,22.50,NE,37,5.0,5.0,16,0.00,,,0.00,Wunderground v.1.15,2013-05-27 13:13:00,
2013-05-27 07:19:00,60.3,13.9,22.50,NW,306,4.0,21.0,16,0.00,,,0.00,Wunderground v.1.15,2013-05-27 13:19:00,
2013-05-27 07:21:00,60.3,12.4,22.50,SSE,156,4.0,21.0,15,0.00,,,0.00,Wunderground v.1.15,2013-05-27 13:21:00,
2013-05-27 07:23:00,60.4,13.9,22.50,SW,224,4.0,21.0,16,0.00,,,0.00,Wunderground v.1.15,2013-05-27 13:23:00,
2013-05-27 07:26:00,60.4,12.5,22.50,WSW,249,5.0,21.0,15,0.00,,,0.00,Wunderground v.1.15,2013-05-27 13:26:00,
2013-05-27 07:30:00,60.5,11.0,22.50,WSW,246,7.0,21.0,14,0.00,,,0.00,Wunderground v.1.15,2013-05-27 13:30:00,
2013-05-27 07:35:00,60.6,12.6,22.50,SW,235,8.0,21.0,15,0.00,,,0.00,Wunderground v.1.15,2013-05-27 13:35:00,
2013-05-27 07:37:00,60.6,12.6,22.50,SW,231,8.0,21.0,15,0.00,,,0.00,Wunderground v.1.15,2013-05-27 13:37:00,
2013-05-27 07:39:00,60.7,12.7,22.50,NW,326,8.0,21.0,15,0.00,,,0.00,Wunderground v.1.15,2013-05-27 13:39:00,
2013-05-27 07:43:00,60.8,12.8,22.50,WSW,240,7.0,7.0,15,0.00,,,0.00,Wunderground v.1.15,2013-05-27 13:43:00,
2013-05-27 07:45:00,60.9,12.9,22.50,NNE,27,7.0,21.0,15,0.00,,,0.00,Wunderground v.1.15,2013-05-27 13:45:00,
2013-05-27 07:49:00,61.1,13.0,22.50,WSW,255,6.0,21.0,15,0.00,,,0.00,Wunderground v.1.15,2013-05-27 13:49:00,
2013-05-27 07:50:00,61.2,14.6,22.50,West,260,6.0,21.0,16,0.00,,,0.00,Wunderground v.1.15,2013-05-27 13:50:00,
2013-05-27 07:57:00,61.5,14.8,22.50,West,269,5.0,21.0,16,0.00,,,0.00,Wunderground v.1.15,2013-05-27 13:57:00,
2013-05-27 07:59:00,61.7,16.4,22.50,SSW,212,4.0,21.0,17,0.00,,,0.00,Wunderground v.1.15,2013-05-27 13:59:00,
2013-05-27 08:03:00,61.7,15.0,22.50,SW,217,5.0,21.0,16,0.00,,,0.00,Wunderground v.1.15,2013-05-27 14:03:00,
2013-05-27 08:05:00,61.7,15.0,22.50,WSW,239,6.0,21.0,16,0.00,,,0.00,Wunderground v.1.15,2013-05-27 14:05:00,
2013-05-27 08:09:00,61.8,15.1,22.50,SW,232,7.0,21.0,16,0.00,,,0.00,Wunderground v.1.15,2013-05-27 14:09:00,
2013-05-27 08:11:00,61.8,15.1,22.50,WSW,248,8.0,21.0,16,0.00,,,0.00,Wunderground v.1.15,2013-05-27 14:11:00,
2013-05-27 08:13:00,61.8,15.1,22.50,SSW,203,8.0,21.0,16,0.00,,,0.00,Wunderground v.1.15,2013-05-27 14:13:00,
2013-05-27 08:14:00,61.8,13.6,22.50,WSW,246,8.0,21.0,15,0.00,,,0.00,Wunderground v.1.15,2013-05-27 14:14:00,
2013-05-27 08:16:00,61.9,15.1,22.50,West,260,8.0,21.0,16,0.00,,,0.00,Wunderground v.1.15,2013-05-27 14:16:00,
2013-05-27 08:18:00,62.0,15.2,22.50,SW,222,8.0,21.0,16,0.00,,,0.00,Wunderground v.1.15,2013-05-27 14:18:00,
2013-05-27 08:23:00,62.2,15.4,22.51,West,263,7.0,7.0,16,0.00,,,0.00,Wunderground v.1.15,2013-05-27 14:23:00,
2013-05-27 08:25:00,62.2,15.4,22.51,West,267,6.0,21.0,16,0.00,,,0.00,Wunderground v.1.15,2013-05-27 14:25:00,
2013-05-27 08:29:00,62.4,15.6,22.51,WNW,292,6.0,21.0,16,0.00,,,0.00,Wunderground v.1.15,2013-05-27 14:29:00,
2013-05-27 08:31:00,62.4,15.6,22.51,SW,226,6.0,21.0,16,0.00,,,0.00,Wunderground v.1.15,2013-05-27 14:31:00,
2013-05-27 08:35:00,62.6,17.1,22.51,WSW,240,5.0,21.0,17,0.00,,,0.00,Wunderground v.1.15,2013-05-27 14:35:00,
2013-05-27 08:39:00,62.6,15.7,22.51,West,259,5.0,21.0,16,0.00,,,0.00,Wunderground v.1.15,2013-05-27 14:39:00,
2013-05-27 08:40:00,62.7,15.8,22.51,SW,223,5.0,21.0,16,0.00,,,0.00,Wunderground v.1.15,2013-05-27 14:40:00,
2013-05-27 08:42:00,62.8,14.4,22.51,South,184,5.0,5.0,15,0.00,,,0.00,Wunderground v.1.15,2013-05-27 14:42:00,
2013-05-27 08:45:00,63.0,16.0,22.51,WSW,240,5.0,7.0,16,0.00,,,0.00,Wunderground v.1.15,2013-05-27 14:45:00,
2013-05-27 08:49:00,63.1,14.6,22.51,SW,214,5.0,21.0,15,0.00,,,0.00,Wunderground v.1.15,2013-05-27 14:49:00,
2013-05-27 08:51:00,63.3,14.8,22.51,WSW,243,5.0,21.0,15,0.00,,,0.00,Wunderground v.1.15,2013-05-27 14:51:00,
2013-05-27 08:53:00,63.3,17.7,22.51,SSW,207,5.0,21.0,17,0.00,,,0.00,Wunderground v.1.15,2013-05-27 14:53:00,
2013-05-27 08:55:00,63.2,14.7,22.51,WSW,246,6.0,21.0,15,0.00,,,0.00,Wunderground v.1.15,2013-05-27 14:55:00,
2013-05-27 09:01:00,63.6,19.3,22.51,SW,221,6.0,21.0,18,0.00,,,0.00,Wunderground v.1.15,2013-05-27 15:01:00,
2013-05-27 09:03:00,63.6,15.0,22.51,SW,217,5.0,21.0,15,0.00,,,0.00,Wunderground v.1.15,2013-05-27 15:03:00,
2013-05-27 09:05:00,63.7,18.0,22.51,WSW,248,5.0,21.0,17,0.00,,,0.00,Wunderground v.1.15,2013-05-27 15:05:00,
2013-05-27 09:06:00,63.9,16.8,22.51,SSW,202,4.0,21.0,16,0.00,,,0.00,Wunderground v.1.15,2013-05-27 15:06:00,
2013-05-27 09:11:00,64.4,18.6,22.51,WSW,239,3.0,21.0,17,0.00,,,0.00,Wunderground v.1.15,2013-05-27 15:11:00,
2013-05-27 09:13:00,64.4,18.6,22.51,SW,214,3.0,21.0,17,0.00,,,0.00,Wunderground v.1.15,2013-05-27 15:13:00,
2013-05-27 09:15:00,64.2,17.0,22.51,West,277,3.0,21.0,16,0.00,,,0.00,Wunderground v.1.15,2013-05-27 15:15:00,
2013-05-27 09:17:00,64.3,18.5,22.51,SW,222,3.0,21.0,17,0.00,,,0.00,Wunderground v.1.15,2013-05-27 15:17:00,
2013-05-27 09:19:00,64.5,18.7,22.51,NW,304,4.0,21.0,17,0.00,,,0.00,Wunderground v.1.15,2013-05-27 15:19:00,
2013-05-27 09:21:00,65.0,20.4,22.51,NW,308,3.0,21.0,18,0.00,,,0.00,Wunderground v.1.15,2013-05-27 15:21:00,
2013-05-27 09:25:00,65.4,14.9,22.51,West,263,2.0,21.0,14,0.00,,,0.00,Wunderground v.1.15,2013-05-27 15:25:00,
2013-05-27 09:27:00,65.0,19.1,22.51,SW,226,2.0,21.0,17,0.00,,,0.00,Wunderground v.1.15,2013-05-27 15:27:00,
2013-05-27 09:30:00,64.4,18.6,22.51,WSW,250,3.0,21.0,17,0.00,,,0.00,Wunderground v.1.15,2013-05-27 15:30:00,
2013-05-27 09:33:00,63.9,18.2,22.51,WSW,246,4.0,21.0,17,0.00,,,0.00,Wunderground v.1.15,2013-05-27 15:33:00,
2013-05-27 09:35:00,63.7,16.6,22.50,WSW,253,5.0,21.0,16,0.00,,,0.00,Wunderground v.1.15,2013-05-27 15:35:00,
2013-05-27 09:39:00,63.4,19.1,22.51,SSW,195,5.0,21.0,18,0.00,,,0.00,Wunderground v.1.15,2013-05-27 15:39:00,
2013-05-27 09:41:00,63.4,17.8,22.51,SW,224,6.0,21.0,17,0.00,,,0.00,Wunderground v.1.15,2013-05-27 15:41:00,
2013-05-27 09:44:00,63.5,17.8,22.50,WSW,253,5.0,21.0,17,0.00,,,0.00,Wunderground v.1.15,2013-05-27 15:44:00,
2013-05-27 09:48:00,63.2,18.9,22.50,SSW,205,5.0,21.0,18,0.00,,,0.00,Wunderground v.1.15,2013-05-27 15:48:00,
2013-05-27 09:51:00,63.2,17.6,22.50,WSW,240,5.0,21.0,17,0.00,,,0.00,Wunderground v.1.15,2013-05-27 15:51:00,
2013-05-27 09:53:00,63.2,17.6,22.50,SSW,210,6.0,21.0,17,0.00,,,0.00,Wunderground v.1.15,2013-05-27 15:53:00,
2013-05-27 09:55:00,63.1,18.9,22.50,WSW,238,5.0,21.0,18,0.00,,,0.00,Wunderground v.1.15,2013-05-27 15:55:00,
2013-05-27 09:57:00,63.1,17.5,22.50,WSW,246,5.0,21.0,17,0.00,,,0.00,Wunderground v.1.15,2013-05-27 15:57:00,
2013-05-27 10:01:00,63.3,19.0,22.50,WSW,257,4.0,21.0,18,0.00,,,0.00,Wunderground v.1.15,2013-05-27 16:01:00,
2013-05-27 10:03:00,63.4,19.1,22.50,SSW,203,4.0,21.0,18,0.00,,,0.00,Wunderground v.1.15,2013-05-27 16:03:00,
2013-05-27 10:07:00,63.2,17.6,22.50,SSW,203,4.0,21.0,17,0.00,,,0.00,Wunderground v.1.15,2013-05-27 16:07:00,
2013-05-27 10:09:00,63.0,17.4,22.50,SSW,198,4.0,21.0,17,0.00,,,0.00,Wunderground v.1.15,2013-05-27 16:09:00,
2013-05-27 10:10:00,63.1,20.1,22.50,East,99,4.0,21.0,19,0.00,,,0.00,Wunderground v.1.15,2013-05-27 16:10:00,
2013-05-27 10:13:00,63.2,18.9,22.50,SW,226,4.0,4.0,18,0.00,,,0.00,Wunderground v.1.15,2013-05-27 16:13:00,
2013-05-27 10:14:00,63.2,20.2,22.50,South,176,4.0,6.0,19,0.00,,,0.00,Wunderground v.1.15,2013-05-27 16:14:00,
2013-05-27 10:16:00,63.3,17.7,22.50,WSW,245,4.0,21.0,17,0.00,,,0.00,Wunderground v.1.15,2013-05-27 16:16:00,
2013-05-27 10:18:00,63.3,19.0,22.50,WSW,242,3.0,21.0,18,0.00,,,0.00,Wunderground v.1.15,2013-05-27 16:18:00,
2013-05-27 10:21:00,63.4,20.4,22.50,West,273,3.0,21.0,19,0.00,,,0.00,Wunderground v.1.15,2013-05-27 16:21:00,
2013-05-27 10:23:00,63.4,20.4,22.50,WSW,249,3.0,21.0,19,0.00,,,0.00,Wunderground v.1.15,2013-05-27 16:23:00,
2013-05-27 10:25:00,63.2,17.6,22.50,WSW,249,4.0,21.0,17,0.00,,,0.00,Wunderground v.1.15,2013-05-27 16:25:00,
2013-05-27 10:29:00,63.0,18.8,22.50,SSE,158,4.0,21.0,18,0.00,,,0.00,Wunderground v.1.15,2013-05-27 16:29:00,
2013-05-27 10:31:00,63.1,21.3,22.50,WSW,246,4.0,21.0,20,0.00,,,0.00,Wunderground v.1.15,2013-05-27 16:31:00,
2013-05-27 10:37:00,63.4,17.8,22.50,WNW,285,3.0,21.0,17,0.00,,,0.00,Wunderground v.1.15,2013-05-27 16:37:00,
2013-05-27 10:39:00,63.7,18.0,22.50,SW,224,2.0,21.0,17,0.00,,,0.00,Wunderground v.1.15,2013-05-27 16:39:00,
2013-05-27 10:40:00,63.8,19.4,22.50,SSW,194,2.0,21.0,18,0.00,,,0.00,Wunderground v.1.15,2013-05-27 16:40:00,
2013-05-27 10:45:00,64.0,22.1,22.50,WSW,255,2.0,4.0,20,0.00,,,0.00,Wunderground v.1.15,2013-05-27 16:45:00,
2013-05-27 10:51:00,63.9,20.8,22.50,SSW,207,3.0,21.0,19,0.00,,,0.00,Wunderground v.1.15,2013-05-27 16:51:00,
2013-05-27 10:53:00,63.9,20.8,22.50,WSW,256,3.0,21.0,19,0.00,,,0.00,Wunderground v.1.15,2013-05-27 16:53:00,
2013-05-27 10:57:00,64.2,21.0,22.50,West,275,2.0,21.0,19,0.00,,,0.00,Wunderground v.1.15,2013-05-27 16:57:00,
2013-05-27 10:59:00,64.6,20.1,22.50,West,273,2.0,21.0,18,0.00,,,0.00,Wunderground v.1.15,2013-05-27 16:59:00,
2013-05-27 11:03:00,65.2,21.9,22.50,SSE,167,1.0,21.0,19,0.00,,,0.00,Wunderground v.1.15,2013-05-27 17:03:00,
2013-05-27 11:05:00,65.4,20.7,22.50,NNE,18,1.0,21.0,18,0.00,,,0.00,Wunderground v.1.15,2013-05-27 17:05:00,
2013-05-27 11:08:00,65.9,19.8,22.50,South,176,1.0,21.0,17,0.00,,,0.00,Wunderground v.1.15,2013-05-27 17:08:00,
2013-05-27 11:11:00,66.1,20.0,22.50,SSW,207,2.0,21.0,17,0.00,,,0.00,Wunderground v.1.15,2013-05-27 17:11:00,
2013-05-27 11:13:00,66.1,21.3,22.50,SW,229,2.0,21.0,18,0.00,,,0.00,Wunderground v.1.15,2013-05-27 17:13:00,
2013-05-27 11:15:00,65.9,18.4,22.50,WSW,249,3.0,21.0,16,0.00,,,0.00,Wunderground v.1.15,2013-05-27 17:15:00,
2013-05-27 11:17:00,65.7,22.3,22.50,SSW,200,3.0,21.0,19,0.00,,,0.00,Wunderground v.1.15,2013-05-27 17:17:00,
2013-05-27 11:21:00,66.0,21.2,22.49,SE,139,3.0,21.0,18,0.00,,,0.00,Wunderground v.1.15,2013-05-27 17:21:00,
2013-05-27 11:23:00,66.0,19.9,22.49,South,184,3.0,21.0,17,0.00,,,0.00,Wunderground v.1.15,2013-05-27 17:23:00,
2013-05-27 11:25:00,65.6,18.1,22.50,SE,131,3.0,21.0,16,0.00,,,0.00,Wunderground v.1.15,2013-05-27 17:25:00,
2013-05-27 11:31:00,65.7,18.2,22.49,NNE,13,2.0,21.0,16,0.00,,,0.00,Wunderground v.1.15,2013-05-27 17:31:00,
2013-05-27 11:37:00,65.8,19.7,22.49,ENE,58,2.0,21.0,17,0.00,,,0.00,Wunderground v.1.15,2013-05-27 17:37:00,
2013-05-27 11:43:00,66.2,21.4,22.49,NE,56,4.0,21.0,18,0.00,,,0.00,Wunderground v.1.15,2013-05-27 17:43:00,
2013-05-27 11:45:00,66.3,20.1,22.49,ENE,75,4.0,21.0,17,0.00,,,0.00,Wunderground v.1.15,2013-05-27 17:45:00,
2013-05-27 11:47:00,65.9,19.8,22.49,NNW,330,4.0,21.0,17,0.00,,,0.00,Wunderground v.1.15,2013-05-27 17:47:00,
2013-05-27 11:49:00,65.5,19.5,22.49,ENE,70,4.0,21.0,17,0.00,,,0.00,Wunderground v.1.15,2013-05-27 17:49:00,
2013-05-27 11:51:00,65.3,19.3,22.49,ENE,61,4.0,21.0,17,0.00,,,0.00,Wunderground v.1.15,2013-05-27 17:51:00,
2013-05-27 11:53:00,65.4,20.7,22.48,SSE,157,3.0,21.0,18,0.00,,,0.00,Wunderground v.1.15,2013-05-27 17:53:00,
2013-05-27 11:56:00,65.7,21.0,22.48,NNE,32,3.0,21.0,18,0.00,,,0.00,Wunderground v.1.15,2013-05-27 17:56:00,
2013-05-27 11:59:00,65.6,20.9,22.49,WSW,253,2.0,21.0,18,0.00,,,0.00,Wunderground v.1.15,2013-05-27 17:59:00,
2013-05-27 12:01:00,65.8,19.7,22.49,NNW,332,2.0,21.0,17,0.00,,,0.00,Wunderground v.1.15,2013-05-27 18:01:00,
2013-05-27 12:03:00,66.0,21.2,22.48,SSW,203,2.0,2.0,18,0.00,,,0.00,Wunderground v.1.15,2013-05-27 18:03:00,
2013-05-27 12:05:00,66.4,20.2,22.48,NNW,335,2.0,21.0,17,0.00,,,0.00,Wunderground v.1.15,2013-05-27 18:05:00,
2013-05-27 12:07:00,66.5,20.3,22.48,ENE,65,2.0,21.0,17,0.00,,,0.00,Wunderground v.1.15,2013-05-27 18:07:00,
2013-05-27 12:09:00,66.4,22.8,22.48,ENE,58,2.0,21.0,19,0.00,,,0.00,Wunderground v.1.15,2013-05-27 18:09:00,
2013-05-27 12:15:00,66.7,19.0,22.48,SE,129,2.0,21.0,16,0.00,,,0.00,Wunderground v.1.15,2013-05-27 18:15:00,
2013-05-27 12:18:00,66.6,17.4,22.47,WSW,256,3.0,21.0,15,0.00,,,0.00,Wunderground v.1.15,2013-05-27 18:18:00,
2013-05-27 12:20:00,66.6,15.9,22.48,WSW,258,4.0,21.0,14,0.00,,,0.00,Wunderground v.1.15,2013-05-27 18:20:00,
2013-05-27 12:25:00,67.2,19.4,22.48,SSW,195,6.0,6.0,16,0.00,,,0.00,Wunderground v.1.15,2013-05-27 18:25:00,
2013-05-27 12:27:00,67.6,18.3,22.48,WSW,249,6.0,21.0,15,0.00,,,0.00,Wunderground v.1.15,2013-05-27 18:27:00,
2013-05-27 12:33:00,67.9,18.5,22.48,WNW,296,5.0,5.0,15,0.00,,,0.00,Wunderground v.1.15,2013-05-27 18:33:00,
2013-05-27 12:35:00,67.5,18.2,22.48,SSW,204,5.0,21.0,15,0.00,,,0.00,Wunderground v.1.15,2013-05-27 18:35:00,
2013-05-27 12:39:00,66.9,17.7,22.48,SW,236,4.0,21.0,15,0.00,,,0.00,Wunderground v.1.15,2013-05-27 18:39:00,
2013-05-27 12:42:00,66.2,20.0,22.48,SW,231,6.0,21.0,17,0.00,,,0.00,Wunderground v.1.15,2013-05-27 18:42:00,
2013-05-27 12:45:00,66.4,17.3,22.48,WSW,248,7.0,21.0,15,0.00,,,0.00,Wunderground v.1.15,2013-05-27 18:45:00,
2013-05-27 12:49:00,67.7,19.8,22.48,NW,323,7.0,21.0,16,0.00,,,0.00,Wunderground v.1.15,2013-05-27 18:49:00,
2013-05-27 12:51:00,68.3,18.8,22.48,West,263,6.0,21.0,15,0.00,,,0.00,Wunderground v.1.15,2013-05-27 18:51:00,
2013-05-27 12:55:00,68.7,19.1,22.47,West,260,5.0,21.0,15,0.00,,,0.00,Wunderground v.1.15,2013-05-27 18:55:00,
2013-05-27 12:59:00,68.9,19.3,22.47,West,273,6.0,21.0,15,0.00,,,0.00,Wunderground v.1.15,2013-05-27 18:59:00,
2013-05-27 13:01:00,68.9,19.3,22.47,SW,229,6.0,21.0,15,0.00,,,0.00,Wunderground v.1.15,2013-05-27 19:01:00,
2013-05-27 13:03:00,68.8,19.2,22.47,SSW,204,7.0,21.0,15,0.00,,,0.00,Wunderground v.1.15,2013-05-27 19:03:00,
2013-05-27 13:05:00,68.7,17.5,22.47,South,186,8.0,21.0,14,0.00,,,0.00,Wunderground v.1.15,2013-05-27 19:05:00,
2013-05-27 13:10:00,68.1,20.2,22.47,SW,231,8.0,21.0,16,0.00,,,0.00,Wunderground v.1.15,2013-05-27 19:10:00,
2013-05-27 13:12:00,68.2,20.2,22.47,SSW,209,8.0,21.0,16,0.00,,,0.00,Wunderground v.1.15,2013-05-27 19:12:00,
2013-05-27 13:15:00,68.3,20.3,22.47,SSW,202,7.0,21.0,16,0.00,,,0.00,Wunderground v.1.15,2013-05-27 19:15:00,
2013-05-27 13:19:00,68.4,18.9,22.48,SW,225,8.0,21.0,15,0.00,,,0.00,Wunderground v.1.15,2013-05-27 19:19:00,
2013-05-27 13:21:00,68.0,18.6,22.47,SSW,210,7.0,21.0,15,0.00,,,0.00,Wunderground v.1.15,2013-05-27 19:21:00,
2013-05-27 13:23:00,67.9,20.0,22.47,WSW,246,7.0,21.0,16,0.00,,,0.00,Wunderground v.1.15,2013-05-27 19:23:00,
2013-05-27 13:29:00,68.2,20.2,22.47,SW,236,6.0,21.0,16,0.00,,,0.00,Wunderground v.1.15,2013-05-27 19:29:00,
2013-05-27 13:31:00,68.6,22.0,22.48,SE,127,6.0,21.0,17,0.00,,,0.00,Wunderground v.1.15,2013-05-27 19:31:00,
2013-05-27 13:33:00,68.7,20.6,22.48,WSW,252,6.0,21.0,16,0.00,,,0.00,Wunderground v.1.15,2013-05-27 19:33:00,
2013-05-27 13:37:00,68.6,23.4,22.48,SW,226,7.0,21.0,18,0.00,,,0.00,Wunderground v.1.15,2013-05-27 19:37:00,
2013-05-27 13:38:00,68.9,22.2,22.48,WSW,243,7.0,21.0,17,0.00,,,0.00,Wunderground v.1.15,2013-05-27 19:38:00,
2013-05-27 13:43:00,68.5,20.5,22.47,SW,236,6.0,21.0,16,0.00,,,0.00,Wunderground v.1.15,2013-05-27 19:43:00,
2013-05-27 13:45:00,68.2,20.2,22.47,WSW,240,6.0,21.0,16,0.00,,,0.00,Wunderground v.1.15,2013-05-27 19:45:00,
2013-05-27 13:49:00,66.9,20.6,22.47,SW,219,6.0,21.0,17,0.00,,,0.00,Wunderground v.1.15,2013-05-27 19:49:00,
2013-05-27 13:51:00,66.7,19.0,22.48,North,4,6.0,21.0,16,0.00,,,0.00,Wunderground v.1.15,2013-05-27 19:51:00,
2013-05-27 13:53:00,66.6,19.0,22.47,SE,124,5.0,21.0,16,0.00,,,0.00,Wunderground v.1.15,2013-05-27 19:53:00,
2013-05-27 13:55:00,66.3,18.7,22.47,WNW,301,6.0,21.0,16,0.00,,,0.00,Wunderground v.1.15,2013-05-27 19:55:00,
2013-05-27 13:58:00,65.9,21.2,22.48,WSW,250,5.0,21.0,18,0.00,,,0.00,Wunderground v.1.15,2013-05-27 19:58:00,
2013-05-27 14:00:00,65.4,20.7,22.48,SW,231,6.0,21.0,18,0.00,,,0.00,Wunderground v.1.15,2013-05-27 20:00:00,
2013-05-27 14:03:00,65.0,20.4,22.48,WSW,238,8.0,21.0,18,0.00,,,0.00,Wunderground v.1.15,2013-05-27 20:03:00,
2013-05-27 14:07:00,64.5,22.5,22.48,WSW,249,10.0,21.0,20,0.00,,,0.00,Wunderground v.1.15,2013-05-27 20:07:00,
2013-05-27 14:09:00,64.1,22.2,22.48,SW,219,10.0,21.0,20,0.00,,,0.00,Wunderground v.1.15,2013-05-27 20:09:00,
2013-05-27 14:11:00,63.9,20.8,22.48,WSW,257,10.0,21.0,19,0.00,,,0.00,Wunderground v.1.15,2013-05-27 20:11:00,
2013-05-27 14:15:00,64.4,22.4,22.48,SW,225,7.0,21.0,20,0.00,,,0.00,Wunderground v.1.15,2013-05-27 20:15:00,
2013-05-27 14:17:00,64.7,21.4,22.48,WNW,285,5.0,21.0,19,0.00,,,0.00,Wunderground v.1.15,2013-05-27 20:17:00,
2013-05-27 14:19:00,65.1,21.8,22.47,North,359,4.0,21.0,19,0.00,,,0.00,Wunderground v.1.15,2013-05-27 20:19:00,
2013-05-27 14:21:00,65.8,23.6,22.47,SW,224,3.0,21.0,20,0.00,,,0.00,Wunderground v.1.15,2013-05-27 20:21:00,
2013-05-27 14:23:00,66.7,23.1,22.47,NNE,19,3.0,21.0,19,0.00,,,0.00,Wunderground v.1.15,2013-05-27 20:23:00,
2013-05-27 14:26:00,67.4,22.4,22.47,NNW,346,3.0,21.0,18,0.00,,,0.00,Wunderground v.1.15,2013-05-27 20:26:00,
2013-05-27 14:29:00,67.7,23.9,22.47,North,352,3.0,21.0,19,0.00,,,0.00,Wunderground v.1.15,2013-05-27 20:29:00,
2013-05-27 14:31:00,67.6,21.2,22.47,North,4,4.0,21.0,17,0.00,,,0.00,Wunderground v.1.15,2013-05-27 20:31:00,
2013-05-27 14:33:00,67.9,25.3,22.47,WSW,246,4.0,21.0,20,0.00,,,0.00,Wunderground v.1.15,2013-05-27 20:33:00,
2013-05-27 14:35:00,68.4,21.8,22.47,West,269,4.0,21.0,17,0.00,,,0.00,Wunderground v.1.15,2013-05-27 20:35:00,
2013-05-27 14:39:00,68.0,21.5,22.47,NW,325,4.0,21.0,17,0.00,,,0.00,Wunderground v.1.15,2013-05-27 20:39:00,
2013-05-27 14:41:00,67.9,21.4,22.47,WSW,254,4.0,21.0,17,0.00,,,0.00,Wunderground v.1.15,2013-05-27 20:41:00,
2013-05-27 14:43:00,67.5,22.5,22.47,SSE,167,3.0,3.0,18,0.00,,,0.00,Wunderground v.1.15,2013-05-27 20:43:00,
2013-05-27 14:49:00,66.5,22.9,22.48,WSW,246,4.0,21.0,19,0.00,,,0.00,Wunderground v.1.15,2013-05-27 20:49:00,
2013-05-27 14:53:00,65.7,24.7,22.48,SW,228,5.0,5.0,21,0.00,,,0.00,Wunderground v.1.15,2013-05-27 20:53:00,
2013-05-27 14:55:00,65.3,25.4,22.48,WNW,295,4.0,21.0,22,0.00,,,0.00,Wunderground v.1.15,2013-05-27 20:55:00,
2013-05-27 14:57:00,65.1,25.3,22.48,SSW,210,5.0,21.0,22,0.00,,,0.00,Wunderground v.1.15,2013-05-27 20:57:00,
2013-05-27 14:59:00,65.0,25.2,22.48,SW,236,5.0,21.0,22,0.00,,,0.00,Wunderground v.1.15,2013-05-27 20:59:00,
2013-05-27 15:03:00,65.1,26.3,22.49,WNW,295,5.0,21.0,23,0.00,,,0.00,Wunderground v.1.15,2013-05-27 21:03:00,
2013-05-27 15:05:00,65.1,27.4,22.49,SW,233,5.0,21.0,24,0.00,,,0.00,Wunderground v.1.15,2013-05-27 21:05:00,
2013-05-27 15:09:00,64.9,26.2,22.48,West,270,5.0,21.0,23,0.00,,,0.00,Wunderground v.1.15,2013-05-27 21:09:00,
2013-05-27 15:11:00,64.8,27.1,22.48,WSW,242,4.0,21.0,24,0.00,,,0.00,Wunderground v.1.15,2013-05-27 21:11:00,
2013-05-27 15:12:00,65.1,26.3,22.48,NNW,344,4.0,21.0,23,0.00,,,0.00,Wunderground v.1.15,2013-05-27 21:12:00,
2013-05-27 15:19:00,66.0,28.1,22.48,West,263,3.0,21.0,24,0.00,,,0.00,Wunderground v.1.15,2013-05-27 21:19:00,
2013-05-27 15:21:00,66.3,26.3,22.48,WSW,249,3.0,21.0,22,0.00,,,0.00,Wunderground v.1.15,2013-05-27 21:21:00,
2013-05-27 15:25:00,66.5,26.4,22.47,WSW,258,3.0,21.0,22,0.00,,,0.00,Wunderground v.1.15,2013-05-27 21:25:00,
2013-05-27 15:27:00,66.7,28.7,22.47,WSW,243,3.0,21.0,24,0.00,,,0.00,Wunderground v.1.15,2013-05-27 21:27:00,
2013-05-27 15:31:00,66.2,23.9,22.47,West,262,4.0,21.0,20,0.00,,,0.00,Wunderground v.1.15,2013-05-27 21:31:00,
2013-05-27 15:32:00,66.3,24.0,22.47,NNE,22,4.0,4.0,20,0.00,,,0.00,Wunderground v.1.15,2013-05-27 21:32:00,
2013-05-27 15:37:00,66.8,24.4,22.47,South,174,3.0,21.0,20,0.00,,,0.00,Wunderground v.1.15,2013-05-27 21:37:00,
2013-05-27 15:39:00,66.8,25.6,22.46,SSW,194,2.0,21.0,21,0.00,,,0.00,Wunderground v.1.15,2013-05-27 21:39:00,
2013-05-27 15:41:00,66.7,24.3,22.46,NW,309,3.0,21.0,20,0.00,,,0.00,Wunderground v.1.15,2013-05-27 21:41:00,
2013-05-27 15:43:00,66.6,24.2,22.46,ENE,72,3.0,21.0,20,0.00,,,0.00,Wunderground v.1.15,2013-05-27 21:43:00,
2013-05-27 15:45:00,66.4,25.2,22.46,NNW,338,3.0,21.0,21,0.00,,,0.00,Wunderground v.1.15,2013-05-27 21:45:00,
2013-05-27 15:47:00,66.4,25.2,22.46,NNE,15,4.0,21.0,21,0.00,,,0.00,Wunderground v.1.15,2013-05-27 21:47:00,
2013-05-27 15:51:00,67.2,25.9,22.46,North,353,3.0,21.0,21,0.00,,,0.00,Wunderground v.1.15,2013-05-27 21:51:00,
2013-05-27 15:53:00,67.6,26.2,22.45,West,276,4.0,4.0,21,0.00,,,0.00,Wunderground v.1.15,2013-05-27 21:53:00,
2013-05-27 15:55:00,68.1,23.0,22.45,NNW,330,4.0,21.0,18,0.00,,,0.00,Wunderground v.1.15,2013-05-27 21:55:00,
2013-05-27 15:58:00,67.7,21.3,22.45,SE,146,5.0,21.0,17,0.00,,,0.00,Wunderground v.1.15,2013-05-27 21:58:00,
2013-05-27 16:03:00,67.8,24.0,22.44,SW,224,5.0,21.0,19,0.00,,,0.00,Wunderground v.1.15,2013-05-27 22:03:00,
2013-05-27 16:09:00,68.1,24.2,22.44,West,273,4.0,21.0,19,0.00,,,0.00,Wunderground v.1.15,2013-05-27 22:09:00,
2013-05-27 16:11:00,68.4,23.2,22.44,NW,319,4.0,21.0,18,0.00,,,0.00,Wunderground v.1.15,2013-05-27 22:11:00,
2013-05-27 16:13:00,68.9,22.2,22.44,WSW,250,4.0,4.0,17,0.00,,,0.00,Wunderground v.1.15,2013-05-27 22:13:00,
2013-05-27 16:15:00,69.2,22.5,22.44,SSW,193,3.0,21.0,17,0.00,,,0.00,Wunderground v.1.15,2013-05-27 22:15:00,
2013-05-27 16:17:00,69.2,21.1,22.44,WSW,238,3.0,21.0,16,0.00,,,0.00,Wunderground v.1.15,2013-05-27 22:17:00,
2013-05-27 16:20:00,68.8,20.7,22.44,SW,231,4.0,21.0,16,0.00,,,0.00,Wunderground v.1.15,2013-05-27 22:20:00,
2013-05-27 16:23:00,68.2,18.7,22.44,SSW,207,6.0,21.0,15,0.00,,,0.00,Wunderground v.1.15,2013-05-27 22:23:00,
2013-05-27 16:25:00,67.8,18.4,22.44,WSW,257,7.0,21.0,15,0.00,,,0.00,Wunderground v.1.15,2013-05-27 22:25:00,
2013-05-27 16:27:00,67.6,19.8,22.44,WNW,283,7.0,21.0,16,0.00,,,0.00,Wunderground v.1.15,2013-05-27 22:27:00,
2013-05-27 16:29:00,67.6,19.8,22.44,NW,326,7.0,21.0,16,0.00,,,0.00,Wunderground v.1.15,2013-05-27 22:29:00,
2013-05-27 16:33:00,68.6,22.0,22.44,NW,321,6.0,6.0,17,0.00,,,0.00,Wunderground v.1.15,2013-05-27 22:33:00,
2013-05-27 16:35:00,69.1,21.0,22.44,SSW,198,5.0,21.0,16,0.00,,,0.00,Wunderground v.1.15,2013-05-27 22:35:00,
2013-05-27 16:37:00,68.8,22.2,22.44,WNW,292,4.0,21.0,17,0.00,,,0.00,Wunderground v.1.15,2013-05-27 22:37:00,
2013-05-27 16:39:00,68.8,20.7,22.44,North,356,4.0,21.0,16,0.00,,,0.00,Wunderground v.1.15,2013-05-27 22:39:00,
2013-05-27 16:43:00,69.3,21.1,22.43,NNE,25,4.0,4.0,16,0.00,,,0.00,Wunderground v.1.15,2013-05-27 22:43:00,
2013-05-27 16:44:00,68.9,20.8,22.43,SW,231,4.0,21.0,16,0.00,,,0.00,Wunderground v.1.15,2013-05-27 22:44:00,
2013-05-27 16:46:00,68.5,20.5,22.43,WSW,257,3.0,21.0,16,0.00,,,0.00,Wunderground v.1.15,2013-05-27 22:46:00,
2013-05-27 16:49:00,68.1,21.6,22.44,NW,305,3.0,21.0,17,0.00,,,0.00,Wunderground v.1.15,2013-05-27 22:49:00,
2013-05-27 16:51:00,67.9,21.4,22.44,West,278,3.0,21.0,17,0.00,,,0.00,Wunderground v.1.15,2013-05-27 22:51:00,
2013-05-27 16:57:00,67.2,20.9,22.44,SW,232,2.0,21.0,17,0.00,,,0.00,Wunderground v.1.15,2013-05-27 22:57:00,
2013-05-27 16:59:00,66.5,18.9,22.45,South,187,3.0,21.0,16,0.00,,,0.00,Wunderground v.1.15,2013-05-27 22:59:00,
2013-05-27 17:01:00,65.9,21.2,22.44,SSW,208,4.0,21.0,18,0.00,,,0.00,Wunderground v.1.15,2013-05-27 23:01:00,
2013-05-27 17:03:00,65.5,18.1,22.44,WSW,242,5.0,5.0,16,0.00,,,0.00,Wunderground v.1.15,2013-05-27 23:03:00,
2013-05-27 17:08:00,66.3,20.1,22.43,SSW,209,6.0,21.0,17,0.00,,,0.00,Wunderground v.1.15,2013-05-27 23:08:00,
2013-05-27 17:11:00,66.7,21.8,22.43,West,259,5.0,21.0,18,0.00,,,0.00,Wunderground v.1.15,2013-05-27 23:11:00,
2013-05-27 17:13:00,66.6,21.7,22.44,WSW,253,5.0,21.0,18,0.00,,,0.00,Wunderground v.1.15,2013-05-27 23:13:00,
2013-05-27 17:15:00,66.4,21.6,22.44,SSE,166,5.0,21.0,18,0.00,,,0.00,Wunderground v.1.15,2013-05-27 23:15:00,
2013-05-27 17:17:00,66.2,21.4,22.44,SW,225,5.0,21.0,18,0.00,,,0.00,Wunderground v.1.15,2013-05-27 23:17:00,
2013-05-27 17:21:00,66.5,22.9,22.44,WSW,252,4.0,21.0,19,0.00,,,0.00,Wunderground v.1.15,2013-05-27 23:21:00,
2013-05-27 17:23:00,66.9,22.0,22.44,NW,317,4.0,4.0,18,0.00,,,0.00,Wunderground v.1.15,2013-05-27 23:23:00,
2013-05-27 17:25:00,67.3,24.8,22.44,WSW,252,3.0,21.0,20,0.00,,,0.00,Wunderground v.1.15,2013-05-27 23:25:00,
2013-05-27 17:29:00,67.4,23.7,22.44,WSW,242,2.0,21.0,19,0.00,,,0.00,Wunderground v.1.15,2013-05-27 23:29:00,
2013-05-27 17:30:00,67.2,23.5,22.44,North,354,3.0,21.0,19,0.00,,,0.00,Wunderground v.1.15,2013-05-27 23:30:00,
2013-05-27 17:34:00,67.1,25.8,22.43,SW,229,4.0,21.0,21,0.00,,,0.00,Wunderground v.1.15,2013-05-27 23:34:00,
2013-05-27 17:39:00,67.0,23.3,22.44,WSW,255,4.0,21.0,19,0.00,,,0.00,Wunderground v.1.15,2013-05-27 23:39:00,
2013-05-27 17:41:00,67.1,25.8,22.44,SSW,212,4.0,21.0,21,0.00,,,0.00,Wunderground v.1.15,2013-05-27 23:41:00,
2013-05-27 17:43:00,67.2,24.7,22.44,WSW,239,4.0,21.0,20,0.00,,,0.00,Wunderground v.1.15,2013-05-27 23:43:00,
2013-05-27 17:45:00,67.1,24.6,22.44,East,101,4.0,21.0,20,0.00,,,0.00,Wunderground v.1.15,2013-05-27 23:45:00,
2013-05-27 17:47:00,67.3,24.8,22.44,SW,226,3.0,21.0,20,0.00,,,0.00,Wunderground v.1.15,2013-05-27 23:47:00,
2013-05-27 17:49:00,67.2,24.7,22.44,WSW,249,4.0,21.0,20,0.00,,,0.00,Wunderground v.1.15,2013-05-27 23:49:00,
2013-05-27 17:51:00,67.1,24.6,22.44,North,11,4.0,21.0,20,0.00,,,0.00,Wunderground v.1.15,2013-05-27 23:51:00,
2013-05-27 17:54:00,66.3,25.2,22.44,SSW,195,3.0,21.0,21,0.00,,,0.00,Wunderground v.1.15,2013-05-27 23:54:00,
2013-05-27 17:57:00,65.8,24.7,22.44,West,262,3.0,21.0,21,0.00,,,0.00,Wunderground v.1.15,2013-05-27 23:57:00,
2013-05-27 18:01:00,65.4,24.4,22.44,WSW,248,4.0,21.0,21,0.00,,,0.00,Wunderground v.1.15,2013-05-28 00:01:00,
2013-05-27 18:03:00,65.4,24.4,22.44,SW,225,4.0,21.0,21,0.00,,,0.00,Wunderground v.1.15,2013-05-28 00:03:00,
2013-05-27 18:07:00,65.3,24.3,22.44,SW,225,5.0,21.0,21,0.00,,,0.00,Wunderground v.1.15,2013-05-28 00:07:00,
2013-05-27 18:09:00,65.6,24.6,22.44,WNW,293,4.0,21.0,21,0.00,,,0.00,Wunderground v.1.15,2013-05-28 00:09:00,
2013-05-27 18:11:00,65.8,24.7,22.44,NW,319,4.0,21.0,21,0.00,,,0.00,Wunderground v.1.15,2013-05-28 00:11:00,
2013-05-27 18:13:00,66.0,26.0,22.44,SW,228,4.0,21.0,22,0.00,,,0.00,Wunderground v.1.15,2013-05-28 00:13:00,
2013-05-27 18:17:00,65.3,24.3,22.44,West,267,4.0,21.0,21,0.00,,,0.00,Wunderground v.1.15,2013-05-28 00:17:00,
2013-05-27 18:19:00,65.1,24.2,22.44,West,274,4.0,21.0,21,0.00,,,0.00,Wunderground v.1.15,2013-05-28 00:19:00,
2013-05-27 18:21:00,65.0,24.1,22.44,WSW,239,5.0,21.0,21,0.00,,,0.00,Wunderground v.1.15,2013-05-28 00:21:00,
2013-05-27 18:25:00,64.6,24.9,22.44,SW,233,6.0,21.0,22,0.00,,,0.00,Wunderground v.1.15,2013-05-28 00:25:00,
2013-05-27 18:29:00,64.5,25.8,22.44,WSW,240,5.0,21.0,23,0.00,,,0.00,Wunderground v.1.15,2013-05-28 00:29:00,
2013-05-27 18:31:00,64.6,25.9,22.44,SSW,211,5.0,21.0,23,0.00,,,0.00,Wunderground v.1.15,2013-05-28 00:31:00,
2013-05-27 18:35:00,64.4,25.8,22.44,WSW,251,5.0,21.0,23,0.00,,,0.00,Wunderground v.1.15,2013-05-28 00:35:00,
2013-05-27 18:37:00,64.4,24.7,22.44,SSW,205,5.0,21.0,22,0.00,,,0.00,Wunderground v.1.15,2013-05-28 00:37:00,
2013-05-27 18:41:00,64.3,24.6,22.44,SW,214,5.0,21.0,22,0.00,,,0.00,Wunderground v.1.15,2013-05-28 00:41:00,
2013-05-27 18:43:00,64.2,25.6,22.44,SSW,198,4.0,4.0,23,0.00,,,0.00,Wunderground v.1.15,2013-05-28 00:43:00,
2013-05-27 18:46:00,64.1,25.5,22.44,SSW,210,4.0,21.0,23,0.00,,,0.00,Wunderground v.1.15,2013-05-28 00:46:00,
2013-05-27 18:48:00,64.1,23.3,22.44,West,259,3.0,21.0,21,0.00,,,0.00,Wunderground v.1.15,2013-05-28 00:48:00,
2013-05-27 18:51:00,64.1,23.3,22.44,SW,216,3.0,21.0,21,0.00,,,0.00,Wunderground v.1.15,2013-05-28 00:51:00,
2013-05-27 18:53:00,64.0,22.1,22.44,SSW,207,4.0,21.0,20,0.00,,,0.00,Wunderground v.1.15,2013-05-28 00:53:00,
2013-05-27 18:55:00,64.0,22.1,22.44,West,273,4.0,21.0,20,0.00,,,0.00,Wunderground v.1.15,2013-05-28 00:55:00,
2013-05-27 18:57:00,64.0,23.2,22.44,SSW,201,5.0,21.0,21,0.00,,,0.00,Wunderground v.1.15,2013-05-28 00:57:00,
2013-05-27 18:59:00,64.0,22.1,22.44,SW,225,5.0,21.0,20,0.00,,,0.00,Wunderground v.1.15,2013-05-28 00:59:00,
2013-05-27 19:01:00,63.9,23.2,22.44,West,259,5.0,21.0,21,0.00,,,0.00,Wunderground v.1.15,2013-05-28 01:01:00,
2013-05-27 19:03:00,63.8,23.1,22.44,SSW,198,5.0,5.0,21,0.00,,,0.00,Wunderground v.1.15,2013-05-28 01:03:00,
2013-05-27 19:05:00,63.8,24.2,22.44,North,355,4.0,21.0,22,0.00,,,0.00,Wunderground v.1.15,2013-05-28 01:05:00,
2013-05-27 19:09:00,63.6,24.0,22.44,SSE,155,3.0,21.0,22,0.00,,,0.00,Wunderground v.1.15,2013-05-28 01:09:00,
2013-05-27 19:11:00,63.6,24.0,22.44,North,4,3.0,21.0,22,0.00,,,0.00,Wunderground v.1.15,2013-05-28 01:11:00,
2013-05-27 19:13:00,63.5,23.9,22.45,WSW,248,3.0,3.0,22,0.00,,,0.00,Wunderground v.1.15,2013-05-28 01:13:00,
2013-05-27 19:17:00,63.3,23.8,22.45,NNW,330,2.0,21.0,22,0.00,,,0.00,Wunderground v.1.15,2013-05-28 01:17:00,
2013-05-27 19:21:00,63.0,23.5,22.45,NNE,25,2.0,21.0,22,0.00,,,0.00,Wunderground v.1.15,2013-05-28 01:21:00,
2013-05-27 19:23:00,62.9,23.4,22.45,East,91,2.0,2.0,22,0.00,,,0.00,Wunderground v.1.15,2013-05-28 01:23:00,
2013-05-27 19:27:00,62.7,23.3,22.45,ESE,113,2.0,21.0,22,0.00,,,0.00,Wunderground v.1.15,2013-05-28 01:27:00,
2013-05-27 19:29:00,62.6,22.1,22.45,SE,134,1.0,21.0,21,0.00,,,0.00,Wunderground v.1.15,2013-05-28 01:29:00,
2013-05-27 19:32:00,62.3,21.8,22.45,NW,312,2.0,21.0,21,0.00,,,0.00,Wunderground v.1.15,2013-05-28 01:32:00,
2013-05-27 19:34:00,62.1,21.7,22.45,WSW,240,2.0,21.0,21,0.00,,,0.00,Wunderground v.1.15,2013-05-28 01:34:00,
2013-05-27 19:39:00,62.0,21.6,22.45,SW,226,2.0,21.0,21,0.00,,,0.00,Wunderground v.1.15,2013-05-28 01:39:00,
2013-05-27 19:41:00,61.9,22.6,22.45,WSW,253,2.0,21.0,22,0.00,,,0.00,Wunderground v.1.15,2013-05-28 01:41:00,
2013-05-27 19:47:00,61.2,23.1,22.45,SSW,205,1.0,21.0,23,0.00,,,0.00,Wunderground v.1.15,2013-05-28 01:47:00,
2013-05-27 19:49:00,60.9,22.8,22.45,WSW,248,1.0,21.0,23,0.00,,,0.00,Wunderground v.1.15,2013-05-28 01:49:00,
2013-05-27 19:53:00,60.7,22.6,22.45,NNW,335,1.0,1.0,23,0.00,,,0.00,Wunderground v.1.15,2013-05-28 01:53:00,
2013-05-27 19:55:00,60.6,22.6,22.45,NNW,336,1.0,21.0,23,0.00,,,0.00,Wunderground v.1.15,2013-05-28 01:55:00,
2013-05-27 19:57:00,60.3,23.3,22.45,NW,310,1.0,21.0,24,0.00,,,0.00,Wunderground v.1.15,2013-05-28 01:57:00,
2013-05-27 19:59:00,60.1,22.1,22.45,WSW,253,1.0,21.0,23,0.00,,,0.00,Wunderground v.1.15,2013-05-28 01:59:00,
2013-05-27 20:01:00,59.9,23.0,22.45,WNW,288,0.0,21.0,24,0.00,,,0.00,Wunderground v.1.15,2013-05-28 02:01:00,
2013-05-27 20:05:00,59.7,22.8,22.45,WSW,256,0.0,21.0,24,0.00,,,0.00,Wunderground v.1.15,2013-05-28 02:05:00,
2013-05-27 20:07:00,59.6,22.7,22.46,WSW,239,1.0,21.0,24,0.00,,,0.00,Wunderground v.1.15,2013-05-28 02:07:00,
2013-05-27 20:09:00,59.5,22.6,22.46,WSW,252,1.0,21.0,24,0.00,,,0.00,Wunderground v.1.15,2013-05-28 02:09:00,
2013-05-27 20:11:00,59.3,23.4,22.46,SW,229,1.0,21.0,25,0.00,,,0.00,Wunderground v.1.15,2013-05-28 02:11:00,
2013-05-27 20:15:00,58.9,24.0,22.46,West,266,1.0,21.0,26,0.00,,,0.00,Wunderground v.1.15,2013-05-28 02:15:00,
2013-05-27 20:17:00,58.7,23.9,22.45,West,266,1.0,21.0,26,0.00,,,0.00,Wunderground v.1.15,2013-05-28 02:17:00,
2013-05-27 20:20:00,58.0,24.2,22.45,West,264,1.0,21.0,27,0.00,,,0.00,Wunderground v.1.15,2013-05-28 02:20:00,
2013-05-27 20:22:00,57.6,23.8,22.45,West,263,0.0,21.0,27,0.00,,,0.00,Wunderground v.1.15,2013-05-28 02:22:00,
2013-05-27 20:25:00,57.2,25.2,22.45,WNW,282,0.0,21.0,29,0.00,,,0.00,Wunderground v.1.15,2013-05-28 02:25:00,
2013-05-27 20:27:00,56.8,24.0,22.45,West,278,0.0,21.0,28,0.00,,,0.00,Wunderground v.1.15,2013-05-28 02:27:00,
2013-05-27 20:29:00,56.3,25.2,22.45,West,273,1.0,21.0,30,0.00,,,0.00,Wunderground v.1.15,2013-05-28 02:29:00,
2013-05-27 20:31:00,56.1,24.2,22.45,SW,236,1.0,21.0,29,0.00,,,0.00,Wunderground v.1.15,2013-05-28 02:31:00,
2013-05-27 20:33:00,56.1,24.2,22.45,WNW,283,1.0,21.0,29,0.00,,,0.00,Wunderground v.1.15,2013-05-28 02:33:00,
2013-05-27 20:37:00,56.1,23.4,22.45,West,264,2.0,21.0,28,0.00,,,0.00,Wunderground v.1.15,2013-05-28 02:37:00,
2013-05-27 20:39:00,56.2,23.5,22.45,WNW,297,2.0,21.0,28,0.00,,,0.00,Wunderground v.1.15,2013-05-28 02:39:00,
2013-05-27 20:43:00,56.9,23.2,22.45,West,261,2.0,21.0,27,0.00,,,0.00,Wunderground v.1.15,2013-05-28 02:43:00,
2013-05-27 20:46:00,57.4,23.7,22.45,SW,224,3.0,21.0,27,0.00,,,0.00,Wunderground v.1.15,2013-05-28 02:46:00,
2013-05-27 20:48:00,57.5,22.8,22.45,SSW,201,3.0,21.0,26,0.00,,,0.00,Wunderground v.1.15,2013-05-28 02:48:00,
2013-05-27 20:50:00,57.5,22.8,22.45,WSW,239,3.0,21.0,26,0.00,,,0.00,Wunderground v.1.15,2013-05-28 02:50:00,
2013-05-27 20:52:00,57.6,23.8,22.45,WSW,246,3.0,3.0,27,0.00,,,0.00,Wunderground v.1.15,2013-05-28 02:52:00,
2013-05-27 20:58:00,57.5,24.6,22.45,WSW,257,2.0,21.0,28,0.00,,,0.00,Wunderground v.1.15,2013-05-28 02:58:00,
2013-05-27 21:00:00,56.9,24.9,22.45,West,261,2.0,21.0,29,0.00,,,0.00,Wunderground v.1.15,2013-05-28 03:00:00,
2013-05-27 21:04:00,55.7,23.9,22.46,West,275,1.0,21.0,29,0.00,,,0.00,Wunderground v.1.15,2013-05-28 03:04:00,
2013-05-27 21:06:00,55.2,24.3,22.46,NW,308,1.0,21.0,30,0.00,,,0.00,Wunderground v.1.15,2013-05-28 03:06:00,
2013-05-27 21:08:00,54.6,23.7,22.46,NW,308,1.0,21.0,30,0.00,,,0.00,Wunderground v.1.15,2013-05-28 03:08:00,
2013-05-27 21:10:00,54.2,24.2,22.46,NW,308,0.0,21.0,31,0.00,,,0.00,Wunderground v.1.15,2013-05-28 03:10:00,
2013-05-27 21:11:00,53.8,23.8,22.46,NW,326,0.0,21.0,31,0.00,,,0.00,Wunderground v.1.15,2013-05-28 03:11:00,
2013-05-27 21:13:00,53.5,24.3,22.46,NW,326,0.0,21.0,32,0.00,,,0.00,Wunderground v.1.15,2013-05-28 03:13:00,
2013-05-27 21:16:00,53.2,24.8,22.46,NW,326,0.0,21.0,33,0.00,,,0.00,Wunderground v.1.15,2013-05-28 03:16:00,
2013-05-27 21:20:00,52.7,24.4,22.47,NNW,333,0.0,21.0,33,0.00,,,0.00,Wunderground v.1.15,2013-05-28 03:20:00,
2013-05-27 21:22:00,52.6,24.3,22.47,NNE,12,0.0,21.0,33,0.00,,,0.00,Wunderground v.1.15,2013-05-28 03:22:00,
2013-05-27 21:26:00,52.5,24.2,22.47,North,4,1.0,21.0,33,0.00,,,0.00,Wunderground v.1.15,2013-05-28 03:26:00,
2013-05-27 21:28:00,52.4,24.1,22.47,NNE,16,1.0,21.0,33,0.00,,,0.00,Wunderground v.1.15,2013-05-28 03:28:00,
2013-05-27 21:32:00,52.2,24.6,22.47,NNE,16,1.0,21.0,34,0.00,,,0.00,Wunderground v.1.15,2013-05-28 03:32:00,
2013-05-27 21:34:00,51.8,25.0,22.47,WNW,288,1.0,21.0,35,0.00,,,0.00,Wunderground v.1.15,2013-05-28 03:34:00,
2013-05-27 21:36:00,51.6,25.5,22.47,WNW,288,1.0,21.0,36,0.00,,,0.00,Wunderground v.1.15,2013-05-28 03:36:00,
2013-05-27 21:38:00,51.2,25.1,22.48,WNW,288,0.0,21.0,36,0.00,,,0.00,Wunderground v.1.15,2013-05-28 03:38:00,
2013-05-27 21:40:00,51.0,25.0,22.48,WNW,288,0.0,21.0,36,0.00,,,0.00,Wunderground v.1.15,2013-05-28 03:40:00,
2013-05-27 21:44:00,50.5,25.2,22.48,WNW,292,0.0,21.0,37,0.00,,,0.00,Wunderground v.1.15,2013-05-28 03:44:00,
2013-05-27 21:46:00,50.3,26.3,22.48,WNW,293,0.0,21.0,39,0.00,,,0.00,Wunderground v.1.15,2013-05-28 03:46:00,
2013-05-27 21:48:00,50.0,25.4,22.48,WNW,294,0.0,21.0,38,0.00,,,0.00,Wunderground v.1.15,2013-05-28 03:48:00,
2013-05-27 21:52:00,49.8,25.2,22.48,WNW,294,0.0,21.0,38,0.00,,,0.00,Wunderground v.1.15,2013-05-28 03:52:00,
2013-05-27 21:54:00,49.7,25.7,22.48,WNW,293,0.0,21.0,39,0.00,,,0.00,Wunderground v.1.15,2013-05-28 03:54:00,
2013-05-27 21:58:00,49.6,26.2,22.48,WNW,294,0.0,21.0,40,0.00,,,0.00,Wunderground v.1.15,2013-05-28 03:58:00,
2013-05-27 21:59:00,49.5,26.1,22.48,WNW,294,0.0,21.0,40,0.00,,,0.00,Wunderground v.1.15,2013-05-28 03:59:00,
2013-05-27 22:01:00,49.4,26.1,22.48,WNW,293,0.0,21.0,40,0.00,,,0.00,Wunderground v.1.15,2013-05-28 04:01:00,
2013-05-27 22:04:00,49.3,26.0,22.49,SSE,165,0.0,21.0,40,0.00,,,0.00,Wunderground v.1.15,2013-05-28 04:04:00,
2013-05-27 22:08:00,49.0,26.3,22.49,SSE,165,0.0,21.0,41,0.00,,,0.00,Wunderground v.1.15,2013-05-28 04:08:00,
2013-05-27 22:12:00,48.9,25.6,22.49,SSE,165,0.0,21.0,40,0.00,,,0.00,Wunderground v.1.15,2013-05-28 04:12:00,
2013-05-27 22:14:00,48.9,25.6,22.49,SSE,164,0.0,21.0,40,0.00,,,0.00,Wunderground v.1.15,2013-05-28 04:14:00,
2013-05-27 22:16:00,49.1,25.8,22.49,SSE,164,0.0,21.0,40,0.00,,,0.00,Wunderground v.1.15,2013-05-28 04:16:00,
2013-05-27 22:18:00,49.2,25.9,22.49,SSE,163,0.0,21.0,40,0.00,,,0.00,Wunderground v.1.15,2013-05-28 04:18:00,
2013-05-27 22:22:00,49.2,25.9,22.49,SSE,164,0.0,21.0,40,0.00,,,0.00,Wunderground v.1.15,2013-05-28 04:22:00,
2013-05-27 22:24:00,49.3,26.0,22.49,SSW,201,0.0,21.0,40,0.00,,,0.00,Wunderground v.1.15,2013-05-28 04:24:00,
2013-05-27 22:28:00,49.2,26.5,22.49,SSW,201,0.0,21.0,41,0.00,,,0.00,Wunderground v.1.15,2013-05-28 04:28:00,
2013-05-27 22:30:00,49.1,26.4,22.49,SSW,201,0.0,21.0,41,0.00,,,0.00,Wunderground v.1.15,2013-05-28 04:30:00,
2013-05-27 22:34:00,48.8,26.7,22.49,SSW,202,0.0,21.0,42,0.00,,,0.00,Wunderground v.1.15,2013-05-28 04:34:00,
2013-05-27 22:36:00,48.7,26.0,22.49,SSW,202,0.0,21.0,41,0.00,,,0.00,Wunderground v.1.15,2013-05-28 04:36:00,
2013-05-27 22:38:00,48.6,26.5,22.49,SSW,201,0.0,21.0,42,0.00,,,0.00,Wunderground v.1.15,2013-05-28 04:38:00,
2013-05-27 22:42:00,48.5,26.4,22.48,SSW,202,0.0,21.0,42,0.00,,,0.00,Wunderground v.1.15,2013-05-28 04:42:00,
2013-05-27 22:44:00,48.5,26.4,22.48,SSW,201,0.0,21.0,42,0.00,,,0.00,Wunderground v.1.15,2013-05-28 04:44:00,
2013-05-27 22:45:00,48.5,27.0,22.48,SSW,201,0.0,21.0,43,0.00,,,0.00,Wunderground v.1.15,2013-05-28 04:45:00,
2013-05-27 22:47:00,48.4,26.9,22.48,SSW,202,0.0,21.0,43,0.00,,,0.00,Wunderground v.1.15,2013-05-28 04:47:00,
2013-05-27 22:54:00,48.0,26.5,22.48,SSW,201,0.0,21.0,43,0.00,,,0.00,Wunderground v.1.15,2013-05-28 04:54:00,
2013-05-27 22:56:00,48.0,26.5,22.48,SSW,201,0.0,21.0,43,0.00,,,0.00,Wunderground v.1.15,2013-05-28 04:56:00,
2013-05-27 22:58:00,47.9,27.0,22.48,SSW,201,0.0,21.0,44,0.00,,,0.00,Wunderground v.1.15,2013-05-28 04:58:00,
2013-05-27 23:00:00,47.7,26.8,22.48,SSW,202,0.0,21.0,44,0.00,,,0.00,Wunderground v.1.15,2013-05-28 05:00:00,
2013-05-27 23:02:00,47.6,27.3,22.48,SSW,201,0.0,21.0,45,0.00,,,0.00,Wunderground v.1.15,2013-05-28 05:02:00,
2013-05-27 23:04:00,47.6,26.7,22.48,SSW,201,1.0,21.0,44,0.00,,,0.00,Wunderground v.1.15,2013-05-28 05:04:00,
2013-05-27 23:10:00,47.8,26.9,22.48,North,351,1.0,21.0,44,0.00,,,0.00,Wunderground v.1.15,2013-05-28 05:10:00,
2013-05-27 23:12:00,47.8,27.5,22.48,North,353,1.0,1.0,45,0.00,,,0.00,Wunderground v.1.15,2013-05-28 05:12:00,
2013-05-27 23:14:00,47.7,26.8,22.48,ENE,60,1.0,21.0,44,0.00,,,0.00,Wunderground v.1.15,2013-05-28 05:14:00,
2013-05-27 23:20:00,47.3,26.5,22.48,ENE,61,0.0,21.0,44,0.00,,,0.00,Wunderground v.1.15,2013-05-28 05:20:00,
2013-05-27 23:22:00,47.2,26.9,22.48,ENE,61,0.0,21.0,45,0.00,,,0.00,Wunderground v.1.15,2013-05-28 05:22:00,
2013-05-27 23:24:00,47.1,26.8,22.48,ENE,61,0.0,21.0,45,0.00,,,0.00,Wunderground v.1.15,2013-05-28 05:24:00,
2013-05-27 23:30:00,46.4,26.7,22.48,ENE,60,0.0,21.0,46,0.00,,,0.00,Wunderground v.1.15,2013-05-28 05:30:00,
2013-05-27 23:32:00,46.2,26.5,22.48,ENE,60,0.0,21.0,46,0.00,,,0.00,Wunderground v.1.15,2013-05-28 05:32:00,
2013-05-27 23:38:00,45.9,26.8,22.48,ENE,61,0.0,21.0,47,0.00,,,0.00,Wunderground v.1.15,2013-05-28 05:38:00,
2013-05-27 23:40:00,45.8,26.7,22.48,NW,323,0.0,21.0,47,0.00,,,0.00,Wunderground v.1.15,2013-05-28 05:40:00,
2013-05-27 23:42:00,45.7,26.6,22.48,NW,322,0.0,21.0,47,0.00,,,0.00,Wunderground v.1.15,2013-05-28 05:42:00,
2013-05-27 23:46:00,45.3,26.7,22.48,NW,322,0.0,21.0,48,0.00,,,0.00,Wunderground v.1.15,2013-05-28 05:46:00,
2013-05-27 23:48:00,45.1,27.1,22.48,NW,322,0.0,21.0,49,0.00,,,0.00,Wunderground v.1.15,2013-05-28 05:48:00,
2013-05-27 23:50:00,44.9,26.9,22.48,NW,322,0.0,21.0,49,0.00,,,0.00,Wunderground v.1.15,2013-05-28 05:50:00,
2013-05-27 23:54:00,44.4,26.9,22.48,NW,322,0.0,21.0,50,0.00,,,0.00,Wunderground v.1.15,2013-05-28 05:54:00,
2013-05-27 23:56:00,44.2,26.7,22.48,NW,323,0.0,21.0,50,0.00,,,0.00,Wunderground v.1.15,2013-05-28 05:56:00,
2013-05-27 23:58:00,44.0,26.5,22.48,NW,322,0.0,21.0,50,0.00,,,0.00,Wunderground v.1.15,2013-05-28 05:58:00,